CZ-6A DEB, 60878

Orbit data source: Space-Track

CZ-6A DEB, 60878 is space debris in LEO originally from a launch on Tue, 06 Aug 2024 UTC launched from the Taiyaun Space Center, China (TSC). Debris objects in space refer to the collection of defunct objects orbiting the Earth. Examples of debris include non-operational satellites, rocket bodies, and fragments generated from explosions, collisions, or faulty payload assembly.

Loading next visibility...
Identifier
60878, 2024-140KH
Orbit
LEO
Country
Flag of CNCN / PRC
Related business
Manufacturer
SAST
Mission
Spacecraft
Bus & Motor
Unknown
Mass
Unknown
Launch date (UTC)
2024-08-06 (2 years ago)
Launch vehicle
Unknown
Launch site
Taiyaun Space Center, China (TSC)
Object type
Payload
Rocket body
Debris
Shape & HBR
Unknown shape, 0.1 m
Radar Cross Section
Small (<0.1 m²)

Expand to show TLE details & history
Last TLE update: 12 hours ago

TLE from 12 hours ago
0 CZ-6A DEB
1 60878U 24140KH  26118.41516492  .00035134  00000-0  20430-2 0  9997
2 60878  89.0621 278.0072 0080383 300.1517  59.1774 15.09176843 92077
Epoch: 2026-04-28T09:57Z
TLE epoch observation values (Epoch: 2026-04-28T09:57:50.249Z)
Latitude
-0.00001°
Longitude
-87.84298°
Altitude
513.731 km
Speed
7.622 km/s
True Right ascension
18h 32m 01s
True Declination
0° 00' 00"
Sunlit
Object was in full shadow at epoch
Visualization orbit readout
Latitude
Unknown
Longitude
Unknown
Altitude
Unknown
Speed
Unknown
Apparent Right ascension
Unknown
Apparent Declination
Unknown
Sunlit
N/A
Visualization observer readout
Local Sidereal Time
05:07:00
Azimuth
Unknown
Elevation
Unknown
Doppler factor
Unknown
Orbital elements
Apogee altitude
591.112 km
Perigee altitude
479.964 km
Semi-major axis
6,913.675 km
Eccentricity
0.00804
Inclination
89.0621°
RAAN
278.0072°
Arg. of periapsis
300.1517°
True anomaly
59.97249°
Mean anomaly
59.1774°
Eccentric anomaly
59.57454°
Mean motion
3.77555 °/min
Orbital period
95.35 mins
BSTAR
0.002043
Loading maneuver chart data...
Computing Atmospheric mass density...
Loading historical data...
Loading historical data...
Loading historical data...
Loading historical data...
Loading historical data...
Loading historical data...
Loading historical data...

Documentation

Showing up to 5 results
|